Weather in Irvine

United States     33°40′14″N   117°46′51″W
temp.,
°C
wind,
m/s
gust,
m/s
humid.,
%
clouds,
%
prec.,
mm/h
press.,
hPa
HPBL,
m
25 may, wed
wed2523:00+15sw11812 0.0 1011173
02:00+15w11800 0.0 101097
05:00+15wnw11790 0.0 101045
08:00+19wsw11660 0.0 1011198
11:00+23wsw32500 0.0 1012519
14:00+23sw43525 0.0 1011562
17:00+23sw42535 0.0 1011530
20:00+18sw22715 0.0 1012235
26 may, thu
thu2623:00+17sw21796 0.0 1013198
02:00+16wsw11825 0.0 1012130
05:00+15wsw11845 0.0 1013105
08:00+18wsw1171100 0.0 1014270
11:00+24wsw324719 0.0 1014646
14:00+25sw54424 0.0 1013728
17:00+23sw44491 0.0 1013664
20:00+18sw32691 0.0 1014318
27 may, fri
fri2723:00+16sw2279100 0.0 1016278
02:00+15wsw228253 0.0 1015247
05:00+14wsw11845 0.0 1015172
08:00+17wsw21726 0.0 1015430
11:00+22wsw32497 0.0 1015759
14:00+24wsw5341100 0.0 1015772
17:00+21wsw435190 0.0 1014681
20:00+17sw3368100 0.0 1014331
28 may, sat
sat2823:00+16ssw2279100 0.0 1014286
02:00+15ssw2284100 0.0 1013310
05:00+14sw118450 0.0 1013324
08:00+17ssw216913 0.0 1013553
11:00+21sw33515 0.0 1012813
14:00+22sw54465 0.0 1011826
17:00+21sw44525 0.0 1009730
20:00+17ssw33684 0.0 1009370
29 may, sun
sun2923:00+15sse447712 0.0 1009337
02:00+15se348023 0.0 1007265
05:00+14e2279100 0.0 1008113
08:00+17s1167100 0.0 1008529
11:00+21wsw334812 0.0 10081060
14:00+23sw65460 0.0 10061119
17:00+21sw66480 0.0 1006845
20:00+17s34550 0.0 1006456